DW0000 Weather Reports


time (UTC)temp
C
wind
direction
speed
KPH
gust
KPH
rain 1hr
cm
rain 24hr
cm
rain mn
cm
humidity
%
barometer
mb
20260509235505 17 259 20.9 38.6 0.00 0.28 0.08 84 1004.5
20260509235007 17 266 20.9 40.2 0.00 0.28 0.08 85 1004.7
20260509234505 17 255 25.7 41.8 0.00 0.28 0.08 84 1004.4
20260509233008 17 257 20.9 33.8 0.00 0.28 0.08 83 1004.4
20260509232506 17 255 25.7 45.1 0.00 0.28 0.08 84 1004.6
20260509232005 17 259 20.9 35.4 0.00 0.28 0.08 83 1004.7
20260509231506 17 270 16.1 35.4 0.00 0.28 0.08 83 1004.4
20260509231005 17 247 22.5 46.7 0.00 0.28 0.08 82 1005.0
20260509230505 17 243 27.4 46.7 0.00 0.28 0.08 82 1005.0
20260509225005 16 251 22.5 37.0 0.00 0.36 0.08 87 1004.7
20260509224507 16 248 22.5 35.4 0.00 0.36 0.08 85 1004.8
20260509223505 16 245 24.1 45.1 0.00 0.38 0.08 80 1004.7
20260509223007 16 247 30.6 53.1 0.00 0.38 0.08 80 1004.8
20260509222505 16 250 32.2 48.3 0.00 0.38 0.08 79 1004.7
20260509221506 15 249 27.4 40.2 0.00 0.38 0.08 79 1004.6
20260509220505 16 245 29.0 49.9 0.00 0.38 0.08 81 1005.0
20260509220008 16 246 38.6 59.5 0.00 0.38 0.08 79 1005.0
20260509215505 16 248 24.1 41.8 0.00 0.38 0.08 79 1004.7
20260509215004 16 252 20.9 46.7 0.00 0.38 0.08 80 1004.7
20260509214505 16 244 33.8 46.7 0.00 0.38 0.08 80 1004.8
20260509213505 16 254 25.7 56.3 0.00 0.38 0.08 78 1004.6
20260509212505 16 250 33.8 56.3 0.00 0.38 0.08 78 1004.5
20260509212006 16 248 29.0 53.1 0.00 0.38 0.08 77 1004.5
20260509210506 15 248 29.0 45.1 0.00 0.38 0.08 82 1004.3
20260509210005 15 250 19.3 46.7 0.00 0.38 0.08 84 1004.3
20260509205504 15 237 20.9 35.4 0.00 0.38 0.08 84 1004.5
20260509203504 15 244 22.5 48.3 0.00 0.38 0.08 80 1004.2
20260509202505 15 256 25.7 49.9 0.00 0.38 0.08 80 1004.0
20260509201506 15 245 33.8 75.6 0.00 0.38 0.08 79 1003.9
20260509200005 14 245 22.5 35.4 0.00 0.38 0.08 83 1003.8
20260509195507 14 251 30.6 45.1 0.00 0.38 0.08 83 1003.8
20260509193504 14 249 32.2 45.1 0.00 0.38 0.08 86 1003.5
20260509192506 13 256 25.7 38.6 0.00 0.38 0.08 88 1003.5
20260509191505 14 256 14.5 38.6 0.00 0.38 0.08 87 1003.7
20260509190507 13 245 19.3 40.2 0.08 0.38 0.08 87 1003.3
20260509185006 13 252 22.5 40.2 0.05 0.38 0.05 91 1003.3
20260509184504 13 254 20.9 37.0 0.05 0.38 0.05 91 1003.2
20260509184004 13 250 24.1 33.8 0.05 0.38 0.05 91 1003.0
20260509183006 12 255 17.7 27.4 0.05 0.38 0.05 90 1003.1
20260509181506 13 248 17.7 35.4 0.05 0.38 0.05 89 1003.5
20260509180506 13 223 22.5 33.8 0.00 0.30 0.00 86 1003.3
20260509180006 13 251 24.1 40.2 0.00 0.33 0.00 85 1003.2
20260509175005 13 232 30.6 46.7 0.00 0.41 0.00 86 1003.5
20260509174004 14 249 32.2 56.3 0.00 0.41 0.00 82 1003.3
20260509173504 14 250 20.9 33.8 0.00 0.41 0.00 79 1003.3
20260509173006 14 255 19.3 37.0 0.00 0.41 0.00 79 1003.1
20260509171506 14 242 24.1 45.1 0.00 0.41 0.00 80 1003.0
20260509170504 14 244 27.4 48.3 0.00 0.41 0.00 79 1002.9
20260509170006 14 242 27.4 37.0 0.00 0.41 0.00 79 1003.1
20260509165007 14 238 24.1 37.0 0.00 0.41 0.00 79 1002.9
20260509164507 14 253 22.5 35.4 0.00 0.41 0.00 79 1003.0
20260509163508 14 249 20.9 32.2 0.00 0.41 0.00 78 1002.9
20260509162506 14 254 24.1 49.9 0.00 0.41 0.00 76 1002.7
20260509162008 14 243 22.5 37.0 0.00 0.41 0.00 77 1002.6
20260509161007 13 236 27.4 46.7 0.00 0.41 0.00 76 1002.9
20260509160506 13 253 25.7 38.6 0.00 0.41 0.00 77 1002.7
20260509155506 14 243 22.5 37.0 0.00 0.41 0.00 77 1002.8
20260509154508 14 254 24.1 38.6 0.00 0.41 0.00 79 1002.8
20260509151506 14 237 22.5 38.6 0.00 0.41 0.00 79 1003.0
20260509151007 14 239 25.7 33.8 0.00 0.41 0.00 78 1002.8
20260509150506 14 250 19.3 37.0 0.00 0.41 0.00 78 1003.0
20260509150008 14 251 22.5 38.6 0.00 0.41 0.00 79 1003.1
20260509145007 14 252 17.7 29.0 0.00 0.41 0.00 80 1003.1
20260509142007 13 241 19.3 33.8 0.00 0.41 0.00 81 1003.6
20260509141507 13 258 17.7 27.4 0.00 0.41 0.00 81 1003.3
20260509141008 14 243 19.3 29.0 0.00 0.41 0.00 80 1003.3
20260509140007 14 257 16.1 35.4 0.00 0.41 0.00 80 1003.3
20260509134508 13 245 19.3 33.8 0.00 0.41 0.00 80 1003.4
20260509134006 13 243 22.5 32.2 0.00 0.41 0.00 80 1003.4
20260509133506 13 252 14.5 25.7 0.00 0.41 0.00 82 1003.4
20260509133008 13 239 17.7 33.8 0.00 0.41 0.00 83 1003.2
20260509132506 13 244 19.3 29.0 0.00 0.41 0.00 82 1003.1
20260509131506 13 245 16.1 27.4 0.00 0.41 0.00 82 1003.0
20260509131008 13 241 22.5 33.8 0.00 0.41 0.00 82 1003.3
20260509124508 14 244 12.9 24.1 0.00 0.41 0.00 85 1003.4
20260509124008 14 236 16.1 25.7 0.00 0.41 0.00 85 1003.4
20260509123507 14 242 17.7 32.2 0.00 0.41 0.00 85 1003.4
20260509122506 13 245 14.5 27.4 0.00 0.43 0.00 86 1003.4
20260509121506 13 236 16.1 32.2 0.00 0.43 0.00 88 1003.5
20260509120506 13 240 14.5 29.0 0.00 0.46 0.00 90 1003.7
20260509120008 13 252 14.5 27.4 0.00 0.48 0.00 90 1003.7
20260509114508 14 246 19.3 32.2 0.00 0.51 0.48 88 1003.7
20260509114006 14 230 19.3 33.8 0.00 0.51 0.48 88 1003.8
20260509112506 14 234 14.5 33.8 0.00 0.53 0.48 90 1003.9
20260509111006 14 262 11.3 20.9 0.00 0.58 0.48 91 1003.6
20260509103506 13 254 19.3 24.1 0.00 1.04 0.48 94 1003.3
20260509102006 13 266 11.3 20.9 0.00 1.09 0.48 96 1003.2
20260509101505 13 249 11.3 14.5 0.00 1.09 0.48 96 1003.3
20260509100006 13 283 6.4 19.3 0.00 1.09 0.48 95 1003.3
20260509095008 13 301 4.8 12.9 0.00 1.09 0.48 95 1003.3
20260509094506 13 315 8.0 12.9 0.00 1.09 0.48 95 1003.0
20260509093508 13 318 8.0 12.9 0.00 1.09 0.48 95 1003.3
20260509091006 13 273 4.8 8.0 0.00 1.12 0.48 95 1003.4
20260509083506 13 318 14.5 16.1 0.00 1.17 0.48 94 1003.6
20260509083006 13 320 11.3 14.5 0.00 1.17 0.48 94 1003.6
20260509081506 14 318 14.5 16.1 0.00 1.17 0.48 94 1003.5
20260509080506 14 318 11.3 12.9 0.00 1.17 0.48 94 1003.1
20260509074005 14 262 11.3 29.0 0.00 1.22 0.48 95 1003.6
20260509072008 15 324 8.0 14.5 0.00 1.22 0.46 94 1003.3
20260509071506 15 322 9.7 14.5 0.00 1.22 0.46 95 1003.0
20260509071007 15 322 8.0 12.9 0.00 1.22 0.46 95 1003.2
20260509065506 15 290 8.0 12.9 0.00 1.24 0.46 94 1003.3
20260509065007 15 289 8.0 12.9 0.00 1.24 0.46 94 1003.1
20260509064506 15 282 6.4 9.7 0.00 1.24 0.46 94 1003.1
20260509063508 15 319 12.9 16.1 0.00 1.24 0.46 94 1003.1
20260509063017 15 320 12.9 16.1 0.00 1.24 0.46 94 1003.0
20260509061506 15 314 16.1 20.9 0.00 1.27 0.46 94 1002.9
20260509060507 15 316 14.5 27.4 0.00 1.27 0.46 94 1002.8
20260509060006 15 314 17.7 24.1 0.00 1.30 0.46 94 1002.8
20260509055506 15 313 17.7 20.9 0.03 1.30 0.46 94 1003.0
20260509054507 15 314 19.3 25.7 0.05 1.32 0.46 94 1002.9
20260509054006 15 313 14.5 22.5 0.05 1.32 0.46 93 1002.9
20260509053505 15 315 16.1 20.9 0.05 1.32 0.46 93 1002.9
20260509053007 15 316 11.3 19.3 0.08 1.32 0.46 93 1002.9
20260509052507 15 321 8.0 16.1 0.05 1.32 0.46 93 1003.0
20260509052005 15 319 11.3 16.1 0.05 1.32 0.46 93 1003.0
20260509050006 15 306 11.3 22.5 0.08 1.35 0.46 92 1002.8
20260509045007 15 267 12.9 25.7 0.05 1.32 0.41 92 1002.8
20260509044006 15 341 16.1 20.9 0.05 1.30 0.41 91 1003.0
20260509043507 15 338 14.5 16.1 0.05 1.30 0.41 91 1002.8
20260509043006 15 336 9.7 12.9 0.05 1.30 0.38 91 1002.9
20260509040505 15 309 8.0 14.5 0.15 1.30 0.38 91 1003.3
20260509035507 16 264 12.9 22.5 0.13 1.27 0.38 90 1003.4
20260509035005 16 277 9.7 22.5 0.10 1.27 0.36 90 1003.2
20260509034505 16 267 9.7 16.1 0.10 1.24 0.36 89 1003.3
20260509033505 16 291 9.7 33.8 0.10 1.24 0.33 87 1003.6
20260509032507 17 308 32.2 37.0 0.00 1.17 0.25 84 1003.6
20260509031007 17 313 32.2 37.0 0.00 1.14 0.25 83 1003.6
20260509030005 18 309 19.3 29.0 0.00 1.14 0.25 83 1003.6
20260509025506 18 301 17.7 27.4 0.00 1.14 0.25 84 1003.5
20260509025007 18 306 19.3 32.2 0.00 1.14 0.25 84 1003.4
20260509024505 18 314 20.9 35.4 0.00 1.14 0.25 82 1003.6
20260509024005 18 318 27.4 40.2 0.00 1.14 0.25 82 1003.8
20260509023506 18 312 25.7 37.0 0.00 1.14 0.25 81 1003.8
20260509022505 18 309 22.5 37.0 0.00 1.14 0.25 83 1003.6
20260509015504 19 307 25.7 37.0 0.00 1.14 0.25 79 1003.7
20260509015006 19 305 24.1 35.4 0.00 1.14 0.25 80 1003.6
20260509014007 19 309 25.7 32.2 0.00 1.14 0.25 78 1003.7
20260509013006 19 311 27.4 35.4 0.00 1.14 0.25 79 1003.6
20260509012505 19 303 22.5 37.0 0.00 1.14 0.25 78 1003.6
20260509012005 19 303 22.5 37.0 0.00 1.14 0.25 77 1003.6
20260509011507 19 306 27.4 37.0 0.00 1.14 0.25 78 1003.9
20260509010006 19 308 19.3 35.4 0.00 1.14 0.25 79 1003.9
20260509005505 19 304 24.1 40.2 0.00 1.14 0.25 79 1003.8
20260509004505 19 306 27.4 38.6 0.00 1.14 0.25 83 1004.3
20260509003505 19 315 30.6 35.4 0.00 1.14 0.25 85 1004.5
20260509002506 19 317 33.8 59.5 0.00 1.14 0.25 83 1004.5
20260509002006 19 304 16.1 33.8 0.00 1.14 0.25 84 1004.6
20260509001005 18 297 16.1 32.2 0.00 1.14 0.25 86 1005.0
20260509000006 18 314 29.0 40.2 0.00 1.14 0.25 85 1005.1